Location: Bas Rejet
(50.7342°N, 3.4927°E)
Time: 23:36:28
(UTC+00:00)

Daily predictions for brighter satellites

Satellite Brightness Start Highest point End
(mag) Time Altitude Azimuth Time Altitude Azimuth Time Altitude Azimuth
CENTAUR R/B 4.1 17:40:51 10° NW 17:47:18 33° N 17:54:47 10° ENE
Cosmos 1943 Rocket 3.0 17:42:19 10° NNW 17:47:27 33° NE 17:52:32 10° ESE
ATLAS 3B R/B 3.0 17:42:29 10° SSW 17:49:08 52° ESE 17:56:17 10° NE
Cosmos 1818 3.9 17:43:51 10° NW 17:49:19 74° SW 17:54:46 10° SSE
COSMO-SKYMED 1 2.7 17:45:02 10° NNE 17:49:21 57° E 17:53:37 10° S
Cosmos 2322 3.8 17:43:53 10° SSW 17:49:33 66° ESE 17:55:15 10° NE
Cosmos 2366 rocket 4.0 17:43:39 10° N 17:49:52 86° E 17:56:00 10° S
Cosmos 1869 Rocket 4.4 17:47:05 10° SSE 17:50:45 27° E 17:54:26 10° NNE
Cosmos 2333 Rocket 2.8 17:47:40 10° SW 17:53:15 62° NW 17:58:55 10° NNE
Okean 3 3.7 17:51:44 10° NNW 17:55:51 72° W 17:59:59 10° S
Cosmos 1340 Rocket 3.3 17:53:01 10° NNW 17:57:04 68° W 18:01:02 10° S
COSMOS 2428 2.8 17:52:16 10° SSW 17:57:50 61° ESE 18:03:26 10° NE
Okean 1-7 3.2 17:55:34 10° NNW 17:59:55 82° W 18:04:16 10° S
SJ-6B 4.2 17:57:01 10° ESE 18:00:03 21° ENE 18:03:03 10° NNE
Nadezhda 3 Rocket 4.5 17:57:36 10° SSE 18:03:24 39° E 18:09:13 10° NNE
Okean O Rocket 2.9 18:02:52 10° ESE 18:06:15 22° ENE 18:09:39 10° N
Helios 1A 4.3 18:02:48 10° N 18:06:42 43° WNW 18:10:35 10° SW
Cosmos 2219 Rocket 2.6 18:02:13 10° SW 18:07:47 70° WNW 18:13:25 10° NNE
Meteor PRIRODA 4.0 18:05:16 10° S 18:08:46 66° WSW 18:12:19 10° NNW
Cosmos 1470 Rocket 4.0 18:04:29 10° SSW 18:08:51 67° WNW 18:13:16 10° N
Tiangong 0.2 18:07:56 10° SSW 18:09:28 13° SSE 18:11:00 10° SE
Cosmos 405 3.9 18:12:08 10° NNE 18:13:48 16° ENE 18:14:18 15° E
NOSS 2-3 (C) 4.2 18:13:33 10° WSW 18:17:19 53° NW 18:21:49 10° NE
CZ-4B R/B 2.6 18:15:24 10° SSE 18:18:52 79° WSW 18:22:26 10° NNW
NOSS 2-2 (E) 3.3 18:16:13 10° SW 18:19:23 61° NW 18:22:45 10° NE
Resurs 1-3 4.4 18:17:32 10° SE 18:21:21 30° ENE 18:25:10 10° N
NOSS 2-3 (D) 4.2 18:18:53 10° WSW 18:22:38 52° NW 18:27:05 10° NE
GEOS 3 Rocket 3.7 18:19:12 10° NE 18:24:37 89° NW 18:29:56 10° SW
SL-16 R/B 4.5 18:20:59 10° W 18:25:18 22° NW 18:29:37 10° NNE
PSLV R/B 4.3 18:23:10 10° SE 18:26:48 39° ENE 18:30:30 10° N
CSL-04 Rocket 4.5 18:24:15 12° ESE 18:28:19 30° ENE 18:32:56 10° N
NOSS 3-1 (A) 3.4 18:23:36 10° SSW 18:28:23 44° ESE 18:34:02 10° NE
SME Rocket 4.0 18:23:28 10° SE 18:29:31 44° ENE 18:33:50 10° N
Cosmos 1733 Rocket 3.9 18:27:41 10° SE 18:31:20 26° E 18:34:58 10° NNE
Cosmos 1975 4.3 18:28:18 10° SW 18:31:57 39° WNW 18:35:38 10° N
IGS 5A 3.4 18:29:51 10° SSE 18:33:56 88° WSW 18:38:04 10° NNW
SPOT 1/Viking Rocket 4.3 18:30:18 14° ESE 18:33:56 32° ENE 18:38:27 10° N
Resurs 01 Rocket 3.0 18:32:25 17° E 18:33:57 21° ENE 18:37:14 10° NNE
USA 186 2.9 18:35:27 22° ENE 18:35:40 22° ENE 18:38:06 10° NNE
Landsat 4 3.8 18:33:09 10° SE 18:36:34 48° ENE 18:40:06 10° N
CZ-4B DEB 4.3 18:32:16 10° SSE 18:37:43 81° WSW 18:43:12 10° NNW
Cosmos 1269 Rocket 3.9 18:34:48 10° SSW 18:40:04 73° ESE 18:45:22 10° NNE
NOSS 2-2 (D) 3.5 18:37:57 10° WSW 18:41:05 52° NW 18:44:24 10° NE
Cosmos 1980 3.7 18:36:19 10° S 18:41:49 58° ESE 18:47:22 10° NE
Cosmos 2322 Rocket 4.5 18:39:34 10° W 18:43:52 22° NW 18:48:13 10° NNE
NOSS 2-2 (C) 3.7 18:42:19 10° WSW 18:45:27 49° NW 18:48:44 10° NE
Cosmos 2242 Rocket 3.8 18:41:10 10° NNW 18:45:41 76° W 18:50:12 10° S
Okean-O 3.8 18:46:45 22° E 18:47:46 24° ENE 18:51:19 10° N
Cosmos 1766 3.1 18:44:08 10° S 18:47:54 86° W 18:51:42 10° N
CZ-4B R/B 3.1 18:43:04 10° SSE 18:48:20 72° ENE 18:53:41 10° NNW
Cosmos 1867 3.7 18:43:46 10° SSW 18:49:01 53° ESE 18:54:20 10° NE
Cosmos 614 Rocket 4.0 18:44:06 10° SSW 18:49:10 83° WNW 18:54:17 10° NNE
SL-08 R/B 4.4 18:45:39 10° N 18:50:26 50° WNW 18:55:10 10° SW
Cosmos 1378 Rocket 4.1 18:46:27 10° N 18:50:29 37° ENE 18:52:14 26° ESE
Cosmos 2278 Rocket 2.9 18:45:37 10° NW 18:51:10 56° WSW 18:56:40 10° S
Cosmos 1140 Rocket 4.1 18:47:02 10° SSE 18:51:32 31° ESE 18:56:04 10° NE
MOS 1-B 4.3 18:49:42 10° SSE 18:55:28 78° ENE 19:01:17 10° NNW
CZ-4C R/B 3.3 18:53:59 10° NNE 18:57:15 41° E 18:59:36 17° SSE
Feng Yun 1-1 Rocket 4.3 18:52:11 10° SSE 18:57:55 68° ENE 19:03:31 10° NNW
PAYLOAD B 4.4 18:52:25 10° S 18:57:58 74° WSW 19:03:32 10° NNW
Cosmos 1605 Rocket 4.2 18:52:29 10° N 18:58:22 47° ENE 19:02:32 19° SE
Cosmos 1934 Rocket 3.9 18:53:32 10° N 18:59:53 75° E 19:06:07 10° SSE
Cosmos 389 Rocket 2.6 18:58:26 10° N 19:01:01 39° NE 19:01:01 39° NE
USA 267 3.7 18:58:14 19° ENE 19:02:50 54° N 19:09:11 10° WNW
Cosmos 1535 Rocket 4.4 18:58:11 10° N 19:04:16 63° ENE 19:09:50 13° SSE
NOSS 3-1 (C) 3.5 18:59:51 10° SW 19:05:00 67° NW 19:11:20 10° NE
Gbstr 26 Del rocket 4.5 19:01:38 10° WSW 19:09:35 85° SSE 19:15:08 22° ENE
Cosmos 1674 Rocket 3.7 19:07:09 10° N 19:11:32 54° ENE 19:12:54 38° SE
YAOGAN 1 4.3 19:07:45 10° SSW 19:11:40 34° W 19:15:37 10° NNW
Cosmos 2251 Rocket 3.9 19:06:48 10° S 19:11:41 39° ESE 19:16:33 10° NE
CZ-4 R/B 1.9 19:12:38 10° S 19:16:23 55° W 19:20:09 10° NNW
Cosmos 1656 Rocket 4.1 19:12:03 10° NNW 19:17:14 42° NE 19:18:43 35° E
Terra 3.9 19:19:07 13° NE 19:19:07 13° NE 19:20:30 10° NNE
Cosmos 2369 Rocket 2.7 19:14:25 10° NNW 19:19:43 41° NE 19:21:10 35° E
Cosmos 2237 Rocket 2.2 19:14:11 10° SSW 19:19:54 84° WNW 19:25:39 10° NNE
SL-4 R/B 3.6 19:16:42 10° SSW 19:18:59 22° S 19:18:59 22° S
Lacrosse 5 1.9 19:15:43 10° WNW 19:20:50 68° NNE 19:22:30 42° E
Cosmos 1400 Rocket 4.2 19:22:36 10° N 19:25:02 25° NE 19:25:02 25° NE
SL-16 R/B 2.4 19:24:11 10° S 19:29:30 43° ESE 19:34:50 10° NE
Cosmos 1470 3.1 19:26:08 10° SSW 19:29:58 64° WNW 19:33:50 10° N
IRIDIUM 103 4.5 19:26:12 10° N 19:31:17 50° E 19:31:54 47° ESE
Cosmos 1943 Rocket 2.7 19:25:57 10° NW 19:31:30 56° WSW 19:35:34 18° S
NOSS 0 Rocket 4.5 19:26:09 10° SW 19:32:15 59° NW 19:38:27 10° NNE
Cosmos 1727 Rocket 4.4 19:33:39 38° E 19:33:43 38° E 19:39:26 10° NNE
Meteor 1-22 Rocket 3.9 19:28:40 10° S 19:33:56 76° E 19:39:18 10° NNE
SJ-6B 3.8 19:30:49 13° S 19:34:08 45° W 19:37:58 10° NNW
CZ-4C R/B 3.7 19:29:08 10° NW 19:34:53 34° NNE 19:38:12 24° ENE
Cosmos 2221 Rocket 3.6 19:32:49 10° NNW 19:37:22 82° W 19:38:56 41° S
CENTAUR R/B 3.5 19:32:04 10° NW 19:39:42 55° NE 19:43:21 35° E
ATLAS 3B R/B 3.5 19:33:00 10° WSW 19:39:57 55° NW 19:47:24 10° NE
Okean O Rocket 2.2 19:39:33 22° S 19:42:13 55° W 19:46:37 10° NNW
COSMOS 2428 4.5 19:37:25 10° WSW 19:42:28 32° NW 19:47:32 10° NNE
ADEOS Rocket 3.4 19:38:43 24° SSE 19:43:47 83° ENE 19:50:55 10° NNW
Cosmos 2297 3.6 19:38:11 10° NNW 19:43:58 80° ENE 19:45:25 52° SE
Tiangong 0.8 19:43:32 10° SW 19:43:35 10° SW 19:43:35 10° SW
Cosmos 1153 Rocket 4.4 19:42:32 10° N 19:48:44 67° ENE 19:50:18 50° SE
IRIDIUM 106 4.2 19:44:25 10° N 19:49:40 70° E 19:50:08 65° ESE
Meteor 1-12 Rocket 4.4 19:43:55 10° SSW 19:49:46 81° WNW 19:55:46 10° N
Cosmos 2173 Rocket 4.2 19:47:41 10° N 19:53:29 46° ENE 19:53:29 46° ENE
MOS 1 4.2 19:53:44 60° ESE 19:54:23 65° ENE 19:59:59 10° N
Cosmos 407 Rocket 3.3 19:54:52 10° SSW 20:00:07 83° ESE 20:05:28 10° NNE
Meteor 1-24 Rocket 4.2 19:57:05 10° NNW 20:02:19 54° W 20:04:58 28° SSW
USA 229 DEB 3.4 19:56:14 10° SW 20:02:28 85° SE 20:09:23 10° NE
USA 229 3.4 19:56:18 10° SW 20:02:34 84° SE 20:09:28 10° NE
NOSS 3-2 (A) 4.2 19:59:00 10° NW 20:05:56 57° NE 20:07:54 46° E
USA 186 4.2 20:08:04 21° WNW 20:08:04 21° WNW 20:09:54 10° NW
CSL-04 Rocket 4.4 20:05:53 27° SSW 20:08:27 49° W 20:13:38 10° NNW
Resurs 01 Rocket 2.0 20:09:57 58° WSW 20:10:02 59° W 20:14:27 10° NNW
SPOT 1/Viking Rocket 4.5 20:10:54 28° SSW 20:13:12 44° W 20:18:09 10° NNW
Cosmos 2100 Rocket 3.9 20:08:20 10° N 20:14:22 66° ENE 20:14:22 66° ENE
MetOp-B 4.3 20:16:32 63° NNE 20:16:32 63° NNE 20:21:16 10° NNW
Cosmos 1459 Rocket 4.0 20:09:52 10° N 20:16:04 63° ENE 20:16:04 63° ENE
IRS-1C Rocket 4.0 20:16:30 82° WSW 20:16:33 82° WSW 20:21:51 10° NNW
Cosmos 468 Rocket 4.1 20:13:16 10° NNW 20:17:55 70° N 20:17:55 70° N
NOSS 3-1 (A) 4.1 20:14:00 10° WSW 20:19:10 48° NNW 20:25:29 10° NE
Meteor 2-10 Rocket 3.9 20:20:30 60° NE 20:20:30 60° NE 20:25:18 10° NNE
Okean-O 3.5 20:24:15 46° W 20:24:15 46° W 20:28:14 10° NNW
Cosmos 1763 Rocket 3.7 20:20:13 10° NNW 20:24:57 66° W 20:24:57 66° W
Cosmos 1025 Rocket 4.3 20:24:37 10° NNW 20:27:19 36° NNW 20:27:19 36° NNW
Cosmos 540 Rocket 3.8 20:23:54 10° NNW 20:28:05 60° NNW 20:28:05 60° NNW
Cosmos 1140 Rocket 4.5 20:28:12 10° SW 20:33:08 45° WNW 20:38:09 10° NNE
Cosmos 1802 Rocket 4.2 20:35:48 10° N 20:41:15 64° NNE 20:41:15 64° NNE
USA 267 3.1 20:45:34 84° NNE 20:45:35 84° NNE 20:52:11 10° WNW
NOSS 3-2 (C) 4.2 20:39:22 10° NW 20:46:18 56° NE 20:46:51 55° NE
SPOT 5 4.5 20:52:41 27° NNW 20:52:41 27° NNW 20:54:44 10° NNW
Ariane Rocket 4.1 20:52:40 39° NNW 20:52:40 39° NNW 20:55:53 10° NNW
Terra 3.6 20:57:51 26° N 20:57:51 26° N 20:59:56 10° N
Gbstr 26 Del rocket 4.3 20:49:06 10° W 20:57:14 84° N 20:57:28 82° NE
Cosmos 2016 Rocket 4.4 20:50:58 10° N 20:56:05 59° N 20:56:05 59° N
Lacrosse 5 3.6 20:58:55 10° WNW 21:01:41 27° W 21:01:41 27° W
Cosmos 2369 Rocket 3.2 20:58:32 10° NW 21:02:58 39° W 21:02:58 39° W
Cosmos 2237 Rocket 4.4 21:00:24 10° W 21:04:50 23° NW 21:09:17 10° NNE
Cosmos 1725 Rocket 4.5 20:59:47 10° N 21:04:42 57° N 21:04:42 57° N
SL-16 R/B 3.3 21:08:18 10° WSW 21:13:39 41° NW 21:19:03 10° NNE
CZ-4C R/B 3.1 21:17:31 10° NW 21:23:20 65° NNW 21:23:20 65° NNW
USA 238 DEB 4.2 21:19:20 10° NW 21:25:31 57° N 21:25:31 57° N
USA 238 4.2 21:19:26 10° NW 21:25:36 57° N 21:25:36 57° N
CENTAUR R/B 3.4 21:22:48 10° NW 21:30:30 63° WSW 21:30:30 63° WSW
ATLAS 3B R/B 4.4 21:25:54 10° WNW 21:32:21 31° N 21:38:16 13° NE
Cosmos 1980 Rocket 4.4 21:39:17 10° N 21:42:03 18° NNE 21:42:03 18° NNE
ATLAS 3B R/B 4.2 23:18:22 10° NW 23:25:14 35° NNE 23:25:25 35° NNE
